Total_Precipitation_Accumulation
0.82 0.82 0.71 0.69 0.68 0.68 0.66 0.68 0.76 0.85 0.95 1.01 1.07 1.12 1.15 1.25 1.31 1.42 1.58 1.71 1.74 1.76 1.66 1.69 1.81 1.86 2.03 2.07 2.03 1.98 1.97 1.89 1.73 1.64 1.40 1.18 1.18 1.26 1.33 1.24 1.28 1.28 1.11
0.89 0.81 0.72 0.72 0.75 0.80 0.78 0.70 0.71 0.77 0.79 0.90 1.04 1.04 1.05 1.11 1.19 1.31 1.41 1.46 1.56 1.53 1.45 1.47 1.58 1.64 1.78 1.90 2.00 1.91 1.92 1.87 1.85 1.79 1.57 1.35 1.26 1.29 1.35 1.31 1.23 1.22 1.20
0.89 0.87 0.78 0.67 0.70 0.75 0.76 0.68 0.66 0.70 0.74 0.88 1.02 1.14 1.07 0.98 1.08 1.18 1.23 1.26 1.27 1.23 1.22 1.25 1.31 1.38 1.51 1.63 1.74 1.83 1.84 1.77 1.87 1.85 1.64 1.40 1.28 1.28 1.31 1.29 1.26 1.33 1.23
0.93 0.86 0.83 0.77 0.79 0.74 0.64 0.62 0.64 0.63 0.61 0.68 0.83 0.94 0.99 0.95 0.92 0.94 0.98 1.14 1.13 1.05 0.98 0.97 1.00 1.03 1.15 1.29 1.40 1.55 1.71 1.83 1.91 1.93 1.78 1.49 1.31 1.29 1.34 1.40 1.40 1.34 1.35
0.99 0.94 0.87 0.81 0.71 0.64 0.58 0.51 0.52 0.48 0.48 0.54 0.70 0.88 0.95 0.95 0.98 0.98 0.91 0.94 1.01 1.02 0.96 0.87 0.81 0.81 0.91 1.00 1.10 1.35 1.55 1.71 1.85 1.91 1.83 1.65 1.48 1.40 1.34 1.34 1.44 1.54 1.55
0.81 0.82 0.83 0.79 0.63 0.55 0.49 0.42 0.40 0.41 0.43 0.45 0.53 0.70 0.86 0.84 1.00 1.05 0.99 0.90 0.91 0.91 0.91 0.91 0.90 0.85 0.75 0.71 0.78 0.95 1.18 1.39 1.57 1.69 1.71 1.59 1.44 1.41 1.45 1.45 1.44 1.51 1.57
0.62 0.66 0.68 0.64 0.51 0.45 0.36 0.32 0.35 0.36 0.39 0.41 0.47 0.59 0.74 0.89 0.92 0.83 0.92 0.93 0.90 0.90 0.87 0.87 0.91 0.91 0.95 0.84 0.78 0.76 0.80 0.97 1.22 1.43 1.45 1.42 1.49 1.43 1.39 1.35 1.33 1.33 1.35
0.47 0.50 0.50 0.49 0.44 0.37 0.30 0.29 0.31 0.34 0.38 0.39 0.43 0.49 0.57 0.76 0.81 0.72 0.90 0.94 0.95 0.94 0.92 0.94 0.98 1.02 0.99 1.09 1.06 0.97 0.90 0.89 0.99 0.94 1.04 1.31 1.42 1.44 1.45 1.46 1.50 1.42 1.35
0.32 0.38 0.42 0.42 0.38 0.33 0.28 0.35 0.41 0.41 0.40 0.38 0.39 0.41 0.44 0.53 0.62 0.60 0.74 0.88 0.98 0.97 0.88 0.90 0.95 0.99 1.18 1.22 1.13 1.11 1.04 0.99 1.12 1.12 1.14 1.19 1.26 1.27 1.30 1.39 1.46 1.41 1.36
0.20 0.26 0.32 0.35 0.37 0.40 0.48 0.56 0.56 0.53 0.47 0.42 0.39 0.38 0.41 0.43 0.56 0.45 0.57 0.74 0.91 1.01 0.94 0.91 1.06 1.03 1.05 1.00 0.97 1.16 1.14 1.04 0.95 0.91 0.92 0.97 0.99 1.04 1.12 1.16 1.31 1.32 1.27
0.05 0.10 0.20 0.33 0.39 0.47 0.58 0.60 0.59 0.53 0.45 0.40 0.38 0.36 0.36 0.45 0.60 0.54 0.61 0.71 0.83 0.92 0.95 0.97 0.95 1.03 0.86 0.82 0.86 1.01 1.16 1.10 1.06 1.08 1.01 0.96 0.93 0.93 0.90 0.96 1.10 1.20 1.22
0.04 0.08 0.14 0.22 0.31 0.45 0.53 0.52 0.50 0.49 0.46 0.43 0.43 0.40 0.42 0.53 0.61 0.61 0.61 0.66 0.74 0.81 0.84 0.76 0.75 0.83 0.69 0.64 0.63 0.76 0.94 0.96 0.97 1.05 1.03 0.96 0.90 0.87 0.85 0.85 0.93 1.02 1.05
0.02 0.04 0.07 0.12 0.23 0.38 0.41 0.41 0.43 0.46 0.45 0.43 0.42 0.40 0.39 0.47 0.57 0.68 0.58 0.51 0.50 0.58 0.64 0.64 0.57 0.54 0.53 0.49 0.53 0.62 0.69 0.83 0.97 1.01 0.91 0.84 0.84 0.87 0.88 0.86 0.83 0.86 0.89
0.02 0.02 0.02 0.04 0.06 0.12 0.16 0.21 0.27 0.32 0.33 0.33 0.35 0.39 0.42 0.42 0.43 0.49 0.51 0.48 0.43 0.43 0.43 0.37 0.35 0.38 0.45 0.47 0.48 0.50 0.56 0.77 0.95 0.95 0.87 0.81 0.82 0.86 0.93 0.95 0.92 0.86 0.86
0.04 0.02 0.02 0.04 0.05 0.05 0.07 0.11 0.14 0.16 0.20 0.25 0.31 0.35 0.35 0.39 0.39 0.43 0.44 0.45 0.50 0.53 0.55 0.47 0.41 0.39 0.41 0.44 0.47 0.53 0.65 0.76 0.86 0.82 0.82 0.79 0.80 0.86 0.91 0.95 1.01 0.98 0.91
0.05 0.04 0.02 0.02 0.03 0.03 0.05 0.06 0.07 0.08 0.10 0.12 0.16 0.19 0.19 0.25 0.33 0.35 0.38 0.40 0.43 0.50 0.54 0.55 0.55 0.56 0.57 0.55 0.54 0.51 0.52 0.61 0.69 0.75 0.76 0.77 0.77 0.77 0.78 0.82 0.89 0.94 0.93
0.04 0.05 0.03 0.02 0.03 0.03 0.05 0.07 0.07 0.05 0.03 0.04 0.06 0.09 0.12 0.12 0.15 0.21 0.28 0.34 0.36 0.41 0.46 0.48 0.49 0.51 0.51 0.50 0.48 0.46 0.44 0.44 0.51 0.62 0.73 0.79 0.82 0.81 0.80 0.77 0.75 0.77 0.77
0.02 0.03 0.04 0.07 0.08 0.05 0.06 0.10 0.13 0.14 0.11 0.05 0.03 0.05 0.06 0.06 0.06 0.07 0.10 0.17 0.20 0.23 0.30 0.35 0.35 0.36 0.37 0.39 0.37 0.35 0.35 0.38 0.40 0.44 0.54 0.67 0.83 0.92 0.93 0.90 0.84 0.81 0.81
0.01 0.02 0.05 0.09 0.08 0.09 0.12 0.14 0.13 0.14 0.13 0.08 0.05 0.03 0.03 0.04 0.04 0.05 0.06 0.08 0.10 0.11 0.14 0.17 0.18 0.20 0.24 0.26 0.27 0.28 0.29 0.32 0.36 0.39 0.42 0.47 0.59 0.75 0.85 0.90 0.96 1.02 0.99
0.01 0.01 0.02 0.05 0.06 0.08 0.09 0.10 0.10 0.09 0.08 0.07 0.06 0.05 0.05 0.06 0.06 0.05 0.05 0.07 0.08 0.10 0.11 0.13 0.14 0.15 0.18 0.21 0.22 0.24 0.25 0.28 0.31 0.35 0.38 0.42 0.49 0.57 0.67 0.76 0.81 0.87 0.93
0.01 0.01 0.02 0.03 0.04 0.05 0.04 0.05 0.06 0.06 0.06 0.04 0.03 0.03 0.05 0.09 0.10 0.09 0.09 0.09 0.10 0.11 0.11 0.13 0.14 0.16 0.18 0.22 0.30 0.34 0.32 0.31 0.34 0.38 0.43 0.45 0.48 0.53 0.58 0.66 0.72 0.76 0.82
0.02 0.02 0.03 0.04 0.06 0.06 0.04 0.05 0.05 0.06 0.06 0.06 0.05 0.04 0.06 0.09 0.11 0.11 0.11 0.10 0.11 0.12 0.13 0.15 0.16 0.17 0.19 0.23 0.31 0.41 0.45 0.42 0.39 0.41 0.47 0.50 0.53 0.56 0.59 0.65 0.71 0.76 0.78
0.03 0.03 0.03 0.05 0.06 0.05 0.06 0.07 0.07 0.07 0.07 0.07 0.08 0.09 0.09 0.11 0.11 0.11 0.12 0.13 0.15 0.16 0.17 0.17 0.17 0.18 0.21 0.25 0.29 0.33 0.37 0.42 0.47 0.50 0.53 0.55 0.58 0.61 0.64 0.65 0.67 0.73 0.76
0.04 0.05 0.05 0.07 0.07 0.08 0.08 0.08 0.08 0.07 0.07 0.09 0.10 0.12 0.13 0.14 0.13 0.12 0.13 0.15 0.16 0.17 0.19 0.20 0.21 0.21 0.22 0.25 0.27 0.30 0.33 0.38 0.40 0.42 0.48 0.55 0.57 0.60 0.65 0.66 0.66 0.68 0.73
0.05 0.06 0.06 0.07 0.08 0.10 0.11 0.11 0.12 0.11 0.11 0.12 0.13 0.14 0.15 0.16 0.16 0.14 0.14 0.16 0.17 0.18 0.18 0.20 0.20 0.23 0.27 0.28 0.29 0.33 0.44 0.46 0.43 0.42 0.44 0.50 0.54 0.58 0.64 0.71 0.76 0.79 0.78
0.08 0.08 0.08 0.09 0.10 0.11 0.13 0.15 0.17 0.16 0.15 0.15 0.15 0.17 0.18 0.18 0.18 0.18 0.18 0.18 0.20 0.21 0.21 0.23 0.25 0.26 0.29 0.31 0.32 0.37 0.43 0.42 0.42 0.47 0.47 0.48 0.52 0.56 0.63 0.72 0.77 0.82 0.86